Lamar, CO

5:44 AM MST on November 17, 2019 (GMT -0700)
Lamar Municipal

Weather History for KLAA - September, 2019

Change the Weather History Date:

Thursday, September 12, 2019

  Actual Average Record
Temperature  
Mean Temperature 68 °F 68 °F  
Max Temperature 82 °F 84 °F 101 °F (1939)
Min Temperature 53 °F 52 °F 34 °F (1944)
Degree Days  
Heating Degree Days 0 1  
Month to date heating degree days 0 11  
Since 1 July heating degree days 0 16  
Cooling Degree Days 3 5  
Month to date cooling degree days 156 72  
Year to date cooling degree days 1258 1061  
Growing Degree Days 18 (Base 50)    
Moisture  
Dew Point 46 °F    
Average Humidity 58    
Maximum Humidity 89    
Minimum Humidity 26    
Precipitation  
Precipitation 0.00 in 0.05 in 1.05 in (1982)
Month to date precipitation 0.50 0.60  
Year to date precipitation 7.73 12.97  
Sea Level Pressure  
Sea Level Pressure 30.03 in    
Wind  
Wind Speed 8 mph (NE)    
Max Wind Speed 21 mph    
Max Gust Speed 31 mph    
Visibility 10 miles    
Events      
T = Trace of Precipitation, MM = Missing Value Source: NWS Daily Summary

Daily Weather History Graph

Daily Weather History Graph

Search for Another Location

Airport or City:

Astronomy

Sep. 12, 2019 Rise Set
Actual Time 6:29 AM MDT 7:03 PM MDT
Civil Twilight 6:03 AM MDT 7:30 PM MDT
Nautical Twilight 5:31 AM MDT 8:01 PM MDT
Astronomical Twilight 4:59 AM MDT 8:33 PM MDT
Moon 6:47 PM MDT (9/12) 4:54 AM MDT (9/12)
Length of Visible Light 13h 26m
Length of Day
12h 33m
Waxing Gibbous, 98% of the Moon is Illuminated
Sep 12
Waxing Gibbous
Sep 13
Full
Sep 21
Last Quarter
Sep 28
New
Oct 5
First Quarter

Hourly Weather History & Observations

Time (MDT) Temp. Dew Point Humidity Pressure Visibility Wind Dir Wind Speed Gust Speed Precip Events Conditions
12:53 AM 64.0 °F 48.0 °F 56% 29.82 in 10.0 mi North 21.9 mph 35.7 mph N/A   Clear
1:53 AM 63.0 °F 48.0 °F 58% 29.87 in 10.0 mi North 15.0 mph 28.8 mph N/A   Clear
2:53 AM 61.0 °F 48.0 °F 62% 29.89 in 10.0 mi NE 10.4 mph - N/A   Partly Cloudy
3:53 AM 60.1 °F 48.9 °F 67% 29.93 in 10.0 mi NNE 6.9 mph - N/A   Scattered Clouds
4:53 AM 57.9 °F 50.0 °F 75% 29.99 in 10.0 mi Calm Calm - N/A   Mostly Cloudy
5:53 AM 54.0 °F 50.0 °F 86% 30.00 in 10.0 mi West 5.8 mph - N/A   Clear
6:53 AM 55.0 °F 50.0 °F 83% 30.04 in 10.0 mi WNW 6.9 mph - N/A   Clear
7:53 AM 61.0 °F 50.0 °F 67% 30.06 in 10.0 mi WNW 8.1 mph - N/A   Clear
8:53 AM 68.0 °F 46.9 °F 47% 30.06 in 10.0 mi NNW 10.4 mph - N/A   Clear
9:53 AM 70.0 °F 45.0 °F 41% 30.06 in 10.0 mi NE 10.4 mph - N/A   Clear
10:53 AM 73.0 °F 45.0 °F 37% 30.05 in 10.0 mi North 11.5 mph - N/A   Clear
12:53 PM 77.0 °F 45.0 °F 32% 30.06 in 10.0 mi Variable 6.9 mph - N/A   Clear
1:53 PM 77.0 °F 44.1 °F 31% 30.04 in 10.0 mi Calm Calm - N/A   Clear
2:53 PM 80.1 °F 45.0 °F 29% 30.03 in 10.0 mi Variable 6.9 mph - N/A   Clear
3:53 PM 81.0 °F 45.0 °F 28% 30.02 in 10.0 mi NW 5.8 mph - N/A   Clear
4:53 PM 81.0 °F 44.1 °F 27% 30.02 in 10.0 mi Variable 6.9 mph - N/A   Clear
5:53 PM 80.1 °F 43.0 °F 27% 30.03 in 10.0 mi ENE 3.5 mph - N/A   Clear
6:53 PM 75.0 °F 46.0 °F 36% 30.05 in 10.0 mi East 3.5 mph - N/A   Clear
7:53 PM 69.1 °F 42.1 °F 38% 30.08 in 10.0 mi SSE 9.2 mph - N/A   Clear
8:53 PM 68.0 °F 41.0 °F 37% 30.09 in 10.0 mi SSE 11.5 mph - N/A   Clear
9:53 PM 64.9 °F 43.0 °F 45% 30.13 in 10.0 mi East 9.2 mph - N/A   Clear
10:53 PM 59.0 °F 44.1 °F 58% 30.16 in 10.0 mi ENE 9.2 mph - N/A   Clear
11:53 PM 57.0 °F 41.0 °F 55% 30.16 in 10.0 mi East 8.1 mph - N/A   Clear